29.03.2024;09:00;3,000;
29.03.2024;08:45;2,960;
29.03.2024;08:30;2,900;
29.03.2024;08:15;2,950;
29.03.2024;08:00;2,990;
29.03.2024;07:45;2,970;
29.03.2024;07:30;2,960;
29.03.2024;07:15;2,980;
29.03.2024;07:00;2,970;
29.03.2024;06:45;2,930;
29.03.2024;06:30;2,930;
29.03.2024;06:15;2,970;
29.03.2024;06:00;3,000;
29.03.2024;05:45;2,980;
29.03.2024;05:30;2,910;
29.03.2024;05:15;2,930;
29.03.2024;05:00;2,980;
29.03.2024;04:45;3,000;
29.03.2024;04:30;2,990;
29.03.2024;04:15;2,950;
29.03.2024;04:00;2,960;
29.03.2024;03:45;2,980;
29.03.2024;03:30;2,960;
29.03.2024;03:15;2,940;
29.03.2024;03:00;2,970;
29.03.2024;02:45;3,000;
29.03.2024;02:30;2,970;
29.03.2024;02:15;2,940;
29.03.2024;02:00;2,950;
29.03.2024;01:45;2,990;
29.03.2024;01:30;3,000;
29.03.2024;01:15;2,960;
29.03.2024;01:00;2,950;
29.03.2024;00:45;2,960;
29.03.2024;00:30;2,970;
29.03.2024;00:15;2,970;
29.03.2024;00:00;2,960;
28.03.2024;23:45;2,980;
28.03.2024;23:30;3,000;
28.03.2024;23:15;2,960;
28.03.2024;23:00;2,940;
28.03.2024;22:45;2,970;
28.03.2024;22:30;3,000;
28.03.2024;22:15;2,990;
28.03.2024;22:00;2,970;
28.03.2024;21:45;2,950;
28.03.2024;21:30;2,970;
28.03.2024;21:15;2,980;
28.03.2024;21:00;2,960;
28.03.2024;20:45;2,980;
28.03.2024;20:30;2,990;
28.03.2024;20:15;2,990;
28.03.2024;20:00;2,970;
28.03.2024;19:45;2,950;
28.03.2024;19:30;2,970;
28.03.2024;19:15;3,000;
28.03.2024;19:00;2,980;
28.03.2024;18:45;2,970;
28.03.2024;18:30;2,990;
28.03.2024;18:15;2,980;
28.03.2024;18:00;2,970;
28.03.2024;17:45;2,970;
28.03.2024;17:30;2,980;
28.03.2024;17:15;2,990;
28.03.2024;17:00;2,990;
28.03.2024;16:45;2,980;
28.03.2024;16:30;2,990;
28.03.2024;16:15;3,000;
28.03.2024;16:00;2,990;
28.03.2024;15:45;2,970;
28.03.2024;15:30;3,000;
28.03.2024;15:15;3,000;
28.03.2024;15:00;3,000;
28.03.2024;14:45;2,980;
28.03.2024;14:30;2,970;
28.03.2024;14:15;3,000;
28.03.2024;14:00;3,000;
28.03.2024;13:45;2,990;
28.03.2024;13:30;3,000;
28.03.2024;13:15;2,990;
28.03.2024;13:00;3,000;
28.03.2024;12:45;2,990;
28.03.2024;12:30;2,980;
28.03.2024;12:15;3,000;
28.03.2024;12:00;3,000;
28.03.2024;11:45;2,980;
28.03.2024;11:30;2,990;
28.03.2024;11:15;3,000;
28.03.2024;11:00;3,000;
28.03.2024;10:45;3,000;
28.03.2024;10:30;3,000;
28.03.2024;10:15;2,990;
28.03.2024;10:00;3,000;
28.03.2024;09:45;3,000;
28.03.2024;09:30;2,970;
28.03.2024;09:15;3,000;
28.03.2024;09:00;3,000;
28.03.2024;08:45;3,000;
28.03.2024;08:30;3,000;
28.03.2024;08:15;3,000;
28.03.2024;08:00;3,000;
28.03.2024;07:45;3,000;
28.03.2024;07:30;3,000;
28.03.2024;07:15;3,000;
28.03.2024;07:00;3,000;
28.03.2024;06:45;3,000;
28.03.2024;06:30;3,000;
28.03.2024;06:15;3,000;
28.03.2024;06:00;3,000;
28.03.2024;05:45;3,000;
28.03.2024;05:30;3,000;
28.03.2024;05:15;2,970;
28.03.2024;05:00;3,000;
28.03.2024;04:45;3,000;
28.03.2024;04:30;3,000;
28.03.2024;04:15;3,000;
28.03.2024;04:00;3,000;
28.03.2024;03:45;3,000;
28.03.2024;03:30;3,000;
28.03.2024;03:15;3,000;
28.03.2024;03:00;3,000;
28.03.2024;02:45;3,000;
28.03.2024;02:30;3,000;
28.03.2024;02:15;3,000;
28.03.2024;02:00;3,000;
28.03.2024;01:45;3,000;
28.03.2024;01:30;3,000;
28.03.2024;01:15;3,000;
28.03.2024;01:00;3,000;
28.03.2024;00:45;3,000;
28.03.2024;00:30;3,000;
28.03.2024;00:15;3,000;
28.03.2024;00:00;3,000;
27.03.2024;23:45;3,000;
27.03.2024;23:30;3,000;
27.03.2024;23:15;3,000;
27.03.2024;23:00;3,000;
27.03.2024;22:45;3,000;
27.03.2024;22:30;3,000;
27.03.2024;22:15;3,000;
27.03.2024;22:00;3,000;
27.03.2024;21:45;3,000;
27.03.2024;21:30;3,000;
27.03.2024;21:15;3,000;
27.03.2024;21:00;3,000;
27.03.2024;20:45;3,000;
27.03.2024;20:30;3,000;
27.03.2024;20:15;3,000;
27.03.2024;20:00;3,000;
27.03.2024;19:45;3,000;
27.03.2024;19:30;3,000;
27.03.2024;19:15;3,000;
27.03.2024;19:00;3,000;
27.03.2024;18:45;3,000;
27.03.2024;18:30;3,000;
27.03.2024;18:15;3,000;
27.03.2024;18:00;3,000;
27.03.2024;17:45;3,000;
27.03.2024;17:30;3,000;
27.03.2024;17:15;3,000;
27.03.2024;17:00;3,000;
27.03.2024;16:45;3,000;
27.03.2024;16:30;3,000;
27.03.2024;16:15;3,000;
27.03.2024;16:00;3,000;
27.03.2024;15:45;3,000;
27.03.2024;15:30;3,000;
27.03.2024;15:15;3,000;
27.03.2024;15:00;3,000;
27.03.2024;14:45;3,000;
27.03.2024;14:30;3,000;
27.03.2024;14:15;3,000;
27.03.2024;14:00;3,000;
27.03.2024;13:45;3,000;
27.03.2024;13:30;3,000;
27.03.2024;13:15;3,000;
27.03.2024;13:00;3,000;
27.03.2024;12:45;3,000;
27.03.2024;12:30;3,000;
27.03.2024;12:15;3,000;
27.03.2024;12:00;3,000;
27.03.2024;11:45;3,000;
27.03.2024;11:30;3,000;
27.03.2024;11:15;3,000;
27.03.2024;11:00;3,000;
27.03.2024;10:45;3,000;
27.03.2024;10:30;3,000;
27.03.2024;10:15;3,000;
27.03.2024;10:00;3,000;
27.03.2024;09:45;3,000;
27.03.2024;09:30;3,000;
27.03.2024;09:15;3,000;
27.03.2024;09:00;3,000;
27.03.2024;08:45;3,000;
27.03.2024;08:30;3,000;
27.03.2024;08:15;3,000;
27.03.2024;08:00;3,000;
27.03.2024;07:45;3,000;
27.03.2024;07:30;3,000;
27.03.2024;07:15;3,000;
27.03.2024;07:00;3,000;
27.03.2024;06:45;2,990;
27.03.2024;06:30;3,000;
27.03.2024;06:15;3,000;
27.03.2024;06:00;3,000;
27.03.2024;05:45;3,000;
27.03.2024;05:30;3,000;
27.03.2024;05:15;3,000;
27.03.2024;05:00;3,000;
27.03.2024;04:45;3,000;
27.03.2024;04:30;3,000;
27.03.2024;04:15;3,000;
27.03.2024;04:00;3,000;
27.03.2024;03:45;3,000;
27.03.2024;03:30;3,000;
27.03.2024;03:15;3,000;
27.03.2024;03:00;3,000;
27.03.2024;02:45;3,000;
27.03.2024;02:30;3,000;
27.03.2024;02:15;3,000;
27.03.2024;02:00;3,000;
27.03.2024;01:45;3,000;
27.03.2024;01:30;3,000;
27.03.2024;01:15;3,000;
27.03.2024;01:00;3,000;
27.03.2024;00:45;3,000;
27.03.2024;00:30;3,000;
27.03.2024;00:15;3,000;
27.03.2024;00:00;3,000;
26.03.2024;23:45;3,000;
26.03.2024;23:30;3,000;
26.03.2024;23:15;3,000;
26.03.2024;23:00;3,000;
26.03.2024;22:45;3,000;
26.03.2024;22:30;3,000;
26.03.2024;22:15;3,000;
26.03.2024;22:00;3,000;
26.03.2024;21:45;3,000;
26.03.2024;21:30;3,000;
26.03.2024;21:15;3,000;
26.03.2024;21:00;3,000;
26.03.2024;20:45;3,000;
26.03.2024;20:30;3,000;
26.03.2024;20:15;3,000;
26.03.2024;20:00;3,000;
26.03.2024;19:45;3,000;
26.03.2024;19:30;3,000;
26.03.2024;19:15;3,000;
26.03.2024;19:00;3,000;
26.03.2024;18:45;3,000;
26.03.2024;18:30;3,000;
26.03.2024;18:15;3,000;
26.03.2024;18:00;3,000;
26.03.2024;17:45;3,000;
26.03.2024;17:30;3,000;
26.03.2024;17:15;3,000;
26.03.2024;17:00;3,000;
26.03.2024;16:45;3,000;
26.03.2024;16:30;3,000;
26.03.2024;16:15;3,000;
26.03.2024;16:00;3,000;
26.03.2024;15:45;3,000;
26.03.2024;15:30;3,000;
26.03.2024;15:15;3,000;
26.03.2024;15:00;3,000;
26.03.2024;14:45;3,000;
26.03.2024;14:30;3,000;
26.03.2024;14:15;3,000;
26.03.2024;14:00;3,000;
26.03.2024;13:45;3,000;
26.03.2024;13:30;3,000;
26.03.2024;13:15;3,000;
26.03.2024;13:00;3,000;
26.03.2024;12:45;3,000;
26.03.2024;12:30;3,000;
26.03.2024;12:15;3,000;
26.03.2024;12:00;3,000;
26.03.2024;11:45;3,000;
26.03.2024;11:30;3,000;
26.03.2024;11:15;3,000;
26.03.2024;11:00;3,000;
26.03.2024;10:45;3,000;
26.03.2024;10:30;3,000;
26.03.2024;10:15;3,000;
26.03.2024;10:00;3,000;
26.03.2024;09:45;3,000;
26.03.2024;09:30;3,000;
26.03.2024;09:15;3,000;
26.03.2024;09:00;3,000;
26.03.2024;08:45;3,000;
26.03.2024;08:30;3,000;
26.03.2024;08:15;3,000;
26.03.2024;08:00;3,000;
26.03.2024;07:45;3,000;
26.03.2024;07:30;3,000;
26.03.2024;07:15;3,000;
26.03.2024;07:00;3,000;
26.03.2024;06:45;3,000;
26.03.2024;06:30;3,000;
26.03.2024;06:15;3,000;
26.03.2024;06:00;3,000;
26.03.2024;05:45;3,000;
26.03.2024;05:30;3,000;
26.03.2024;05:15;3,000;
26.03.2024;05:00;3,000;
26.03.2024;04:45;3,000;
26.03.2024;04:30;3,000;
26.03.2024;04:15;3,000;
26.03.2024;04:00;3,000;
26.03.2024;03:45;3,000;
26.03.2024;03:30;3,000;
26.03.2024;03:15;3,000;
26.03.2024;03:00;3,000;
26.03.2024;02:45;3,000;
26.03.2024;02:30;3,000;
26.03.2024;02:15;3,000;
26.03.2024;02:00;3,000;
26.03.2024;01:45;3,000;
26.03.2024;01:30;3,000;
26.03.2024;01:15;3,000;
26.03.2024;01:00;3,000;
26.03.2024;00:45;3,000;
26.03.2024;00:30;3,000;
26.03.2024;00:15;3,000;
26.03.2024;00:00;3,000;
25.03.2024;23:45;3,000;
25.03.2024;23:30;3,000;
25.03.2024;23:15;3,000;
25.03.2024;23:00;3,000;
25.03.2024;22:45;3,000;
25.03.2024;22:30;3,000;
25.03.2024;22:15;3,000;
25.03.2024;22:00;3,000;
25.03.2024;21:45;3,000;
25.03.2024;21:30;3,000;
25.03.2024;21:15;3,000;
25.03.2024;21:00;3,000;
25.03.2024;20:45;3,000;
25.03.2024;20:30;3,000;
25.03.2024;20:15;3,000;
25.03.2024;20:00;3,000;
25.03.2024;19:45;3,000;
25.03.2024;19:30;3,000;
25.03.2024;19:15;3,000;
25.03.2024;19:00;3,000;
25.03.2024;18:45;3,000;
25.03.2024;18:30;3,000;
25.03.2024;18:15;3,000;
25.03.2024;18:00;3,000;
25.03.2024;17:45;3,000;
25.03.2024;17:30;3,000;
25.03.2024;17:15;3,000;
25.03.2024;17:00;3,000;
25.03.2024;16:45;3,000;
25.03.2024;16:30;3,000;
25.03.2024;16:15;3,000;
25.03.2024;16:00;3,000;
25.03.2024;15:45;3,000;
25.03.2024;15:30;3,000;
25.03.2024;15:15;3,000;
25.03.2024;15:00;3,000;
25.03.2024;14:45;3,000;
25.03.2024;14:30;3,000;
25.03.2024;14:15;3,000;
25.03.2024;14:00;3,000;
25.03.2024;13:45;3,000;
25.03.2024;13:30;3,000;
25.03.2024;13:15;3,000;
25.03.2024;13:00;3,000;
25.03.2024;12:45;3,000;
25.03.2024;12:30;3,000;
25.03.2024;12:15;3,000;
25.03.2024;12:00;3,000;
25.03.2024;11:45;3,000;
25.03.2024;11:30;3,000;
25.03.2024;11:15;3,000;
25.03.2024;11:00;3,000;
25.03.2024;10:45;3,000;
25.03.2024;10:30;3,000;
25.03.2024;10:15;3,000;
25.03.2024;10:00;3,000;
25.03.2024;09:45;3,000;
25.03.2024;09:30;3,000;
25.03.2024;09:15;3,000;
25.03.2024;09:00;3,000;
25.03.2024;08:45;3,000;
25.03.2024;08:30;3,000;
25.03.2024;08:15;3,000;
25.03.2024;08:00;3,000;
25.03.2024;07:45;3,000;
25.03.2024;07:30;3,000;
25.03.2024;07:15;3,000;
25.03.2024;07:00;3,000;
25.03.2024;06:45;3,000;
25.03.2024;06:30;3,000;
25.03.2024;06:15;3,000;
25.03.2024;06:00;3,000;
25.03.2024;05:45;3,000;
25.03.2024;05:30;3,000;
25.03.2024;05:15;3,000;
25.03.2024;05:00;3,000;
25.03.2024;04:45;3,000;
25.03.2024;04:30;3,000;
25.03.2024;04:15;3,000;
25.03.2024;04:00;3,000;
25.03.2024;03:45;3,000;
25.03.2024;03:30;3,000;
25.03.2024;03:15;3,000;
25.03.2024;03:00;3,000;
25.03.2024;02:45;3,000;
25.03.2024;02:30;3,000;
25.03.2024;02:15;3,000;
25.03.2024;02:00;3,000;
25.03.2024;01:45;3,000;
25.03.2024;01:30;3,000;
25.03.2024;01:15;3,000;
25.03.2024;01:00;3,000;
25.03.2024;00:45;3,000;
25.03.2024;00:30;3,000;
25.03.2024;00:15;3,000;
25.03.2024;00:00;3,000;
24.03.2024;23:45;3,000;
24.03.2024;23:30;3,000;
24.03.2024;23:15;3,000;
24.03.2024;23:00;3,000;
24.03.2024;22:45;3,000;
24.03.2024;22:30;3,000;
24.03.2024;22:15;3,000;
24.03.2024;22:00;3,000;
24.03.2024;21:45;3,000;
24.03.2024;21:30;3,000;
24.03.2024;21:15;3,000;
24.03.2024;21:00;3,000;
24.03.2024;20:45;3,000;
24.03.2024;20:30;3,000;
24.03.2024;20:15;3,000;
24.03.2024;20:00;3,000;
24.03.2024;19:45;3,000;
24.03.2024;19:30;3,000;
24.03.2024;19:15;3,000;
24.03.2024;19:00;3,000;
24.03.2024;18:45;3,000;
24.03.2024;18:30;3,000;
24.03.2024;18:15;3,000;
24.03.2024;18:00;3,000;
24.03.2024;17:45;3,000;
24.03.2024;17:30;3,000;
24.03.2024;17:15;3,000;
24.03.2024;17:00;3,000;
24.03.2024;16:45;3,000;
24.03.2024;16:30;3,000;
24.03.2024;16:15;3,000;
24.03.2024;16:00;3,000;
24.03.2024;15:45;3,000;
24.03.2024;15:30;3,000;
24.03.2024;15:15;3,000;
24.03.2024;15:00;3,000;
24.03.2024;14:45;3,000;
24.03.2024;14:30;3,000;
24.03.2024;14:15;3,000;
24.03.2024;14:00;3,000;
24.03.2024;13:45;3,000;
24.03.2024;13:30;3,000;
24.03.2024;13:15;3,000;
24.03.2024;13:00;3,000;
24.03.2024;12:45;3,000;
24.03.2024;12:30;3,000;
24.03.2024;12:15;3,000;
24.03.2024;12:00;3,000;
24.03.2024;11:45;3,000;
24.03.2024;11:30;3,000;
24.03.2024;11:15;3,000;
24.03.2024;11:00;3,000;
24.03.2024;10:45;3,000;
24.03.2024;10:30;3,000;
24.03.2024;10:15;3,000;
24.03.2024;10:00;3,000;
24.03.2024;09:45;3,000;
24.03.2024;09:30;3,000;
24.03.2024;09:15;3,000;
24.03.2024;09:00;3,000;
24.03.2024;08:45;3,000;
24.03.2024;08:30;3,000;
24.03.2024;08:15;3,000;
24.03.2024;08:00;3,000;
24.03.2024;07:45;3,000;
24.03.2024;07:30;3,000;
24.03.2024;07:15;3,000;
24.03.2024;07:00;3,000;
24.03.2024;06:45;3,000;
24.03.2024;06:30;3,000;
24.03.2024;06:15;3,000;
24.03.2024;06:00;3,000;
24.03.2024;05:45;3,000;
24.03.2024;05:30;3,000;
24.03.2024;05:15;3,000;
24.03.2024;05:00;3,000;
24.03.2024;04:45;3,000;
24.03.2024;04:30;3,000;
24.03.2024;04:15;3,000;
24.03.2024;04:00;3,000;
24.03.2024;03:45;3,000;
24.03.2024;03:30;3,000;
24.03.2024;03:15;3,000;
24.03.2024;03:00;3,000;
24.03.2024;02:45;3,000;
24.03.2024;02:30;3,000;
24.03.2024;02:15;3,000;
24.03.2024;02:00;3,000;
24.03.2024;01:45;3,000;
24.03.2024;01:30;3,000;
24.03.2024;01:15;3,000;
24.03.2024;01:00;3,000;
24.03.2024;00:45;3,000;
24.03.2024;00:30;3,000;
24.03.2024;00:15;3,000;
24.03.2024;00:00;3,000;
23.03.2024;23:45;3,000;
23.03.2024;23:30;3,000;
23.03.2024;23:15;3,000;
23.03.2024;23:00;3,000;
23.03.2024;22:45;3,000;
23.03.2024;22:30;3,000;
23.03.2024;22:15;3,000;
23.03.2024;22:00;3,000;
23.03.2024;21:45;3,000;
23.03.2024;21:30;3,000;
23.03.2024;21:15;3,000;
23.03.2024;21:00;3,000;
23.03.2024;20:45;3,000;
23.03.2024;20:30;3,000;
23.03.2024;20:15;3,000;
23.03.2024;20:00;3,000;
23.03.2024;19:45;3,000;
23.03.2024;19:30;3,000;
23.03.2024;19:15;3,000;
23.03.2024;19:00;3,000;
23.03.2024;18:45;3,000;
23.03.2024;18:30;3,000;
23.03.2024;18:15;3,000;
23.03.2024;18:00;3,000;
23.03.2024;17:45;3,000;
23.03.2024;17:30;3,000;
23.03.2024;17:15;3,000;
23.03.2024;17:00;3,000;
23.03.2024;16:45;3,000;
23.03.2024;16:30;3,000;
23.03.2024;16:15;3,000;
23.03.2024;16:00;3,000;
23.03.2024;15:45;3,000;
23.03.2024;15:30;3,000;
23.03.2024;15:15;3,000;
23.03.2024;15:00;3,000;
23.03.2024;14:45;3,000;
23.03.2024;14:30;3,000;
23.03.2024;14:15;3,000;
23.03.2024;14:00;3,000;
23.03.2024;13:45;3,000;
23.03.2024;13:30;3,000;
23.03.2024;13:15;3,000;
23.03.2024;13:00;3,000;
23.03.2024;12:45;3,000;
23.03.2024;12:30;3,000;
23.03.2024;12:15;3,000;
23.03.2024;12:00;3,000;
23.03.2024;11:45;3,000;
23.03.2024;11:30;3,000;
23.03.2024;11:15;3,000;
23.03.2024;11:00;3,000;
23.03.2024;10:45;3,000;
23.03.2024;10:30;3,000;
23.03.2024;10:15;3,000;
23.03.2024;10:00;3,000;
23.03.2024;09:45;3,000;
23.03.2024;09:30;3,000;
23.03.2024;09:15;3,000;
23.03.2024;09:00;3,000;
23.03.2024;08:45;3,000;
23.03.2024;08:30;3,000;
23.03.2024;08:15;3,000;
23.03.2024;08:00;3,000;
23.03.2024;07:45;3,000;
23.03.2024;07:30;3,000;
23.03.2024;07:15;3,000;
23.03.2024;07:00;3,000;
23.03.2024;06:45;3,000;
23.03.2024;06:30;3,000;
23.03.2024;06:15;3,000;
23.03.2024;06:00;3,000;
23.03.2024;05:45;3,000;
23.03.2024;05:30;3,000;
23.03.2024;05:15;3,000;
23.03.2024;05:00;3,000;
23.03.2024;04:45;3,000;
23.03.2024;04:30;3,000;
23.03.2024;04:15;3,000;
23.03.2024;04:00;3,000;
23.03.2024;03:45;3,000;
23.03.2024;03:30;3,000;
23.03.2024;03:15;3,000;
23.03.2024;03:00;3,000;
23.03.2024;02:45;3,000;
23.03.2024;02:30;3,000;
23.03.2024;02:15;3,000;
23.03.2024;02:00;3,000;
23.03.2024;01:45;3,000;
23.03.2024;01:30;3,000;
23.03.2024;01:15;3,000;
23.03.2024;01:00;3,000;
23.03.2024;00:45;3,000;
23.03.2024;00:30;3,000;
23.03.2024;00:15;3,000;
23.03.2024;00:00;3,000;
22.03.2024;23:45;3,000;
22.03.2024;23:30;3,000;
22.03.2024;23:15;3,000;
22.03.2024;23:00;3,000;
22.03.2024;22:45;3,000;
22.03.2024;22:30;3,000;
22.03.2024;22:15;3,000;
22.03.2024;22:00;3,000;
22.03.2024;21:45;3,000;
22.03.2024;21:30;3,000;
22.03.2024;21:15;3,000;
22.03.2024;21:00;3,000;
22.03.2024;20:45;3,000;
22.03.2024;20:30;3,000;
22.03.2024;20:15;3,000;
22.03.2024;20:00;3,000;
22.03.2024;19:45;3,000;
22.03.2024;19:30;3,000;
22.03.2024;19:15;3,000;
22.03.2024;19:00;3,000;
22.03.2024;18:45;3,000;
22.03.2024;18:30;3,000;
22.03.2024;18:15;3,000;
22.03.2024;18:00;3,000;
22.03.2024;17:45;3,000;
22.03.2024;17:30;3,000;
22.03.2024;17:15;3,000;
22.03.2024;17:00;3,000;
22.03.2024;16:45;3,000;
22.03.2024;16:30;3,000;
22.03.2024;16:15;3,000;
22.03.2024;16:00;3,000;
22.03.2024;15:45;3,000;
22.03.2024;15:30;3,000;
22.03.2024;15:15;3,000;
22.03.2024;15:00;3,000;
22.03.2024;14:45;3,000;
22.03.2024;14:30;3,000;
22.03.2024;14:15;3,000;
22.03.2024;14:00;3,000;
22.03.2024;13:45;3,000;
22.03.2024;13:30;3,000;
22.03.2024;13:15;3,000;
22.03.2024;13:00;3,000;
22.03.2024;12:45;3,000;
22.03.2024;12:30;3,000;
22.03.2024;12:15;3,000;
22.03.2024;12:00;3,000;
22.03.2024;11:45;3,000;
22.03.2024;11:30;3,000;
22.03.2024;11:15;3,000;
22.03.2024;11:00;3,000;
22.03.2024;10:45;3,000;
22.03.2024;10:30;3,000;
22.03.2024;10:15;3,000;
22.03.2024;10:00;3,000;
22.03.2024;09:45;3,000;
22.03.2024;09:30;3,000;
22.03.2024;09:15;3,000;
22.03.2024;09:00;3,000;
22.03.2024;08:45;3,000;
22.03.2024;08:30;3,000;
22.03.2024;08:15;3,000;
22.03.2024;08:00;3,000;
22.03.2024;07:45;3,000;
22.03.2024;07:30;3,000;
22.03.2024;07:15;3,000;
22.03.2024;07:00;2,990;
22.03.2024;06:45;3,000;
22.03.2024;06:30;3,000;
22.03.2024;06:15;3,000;
22.03.2024;06:00;3,000;
22.03.2024;05:45;3,000;
22.03.2024;05:30;3,000;
22.03.2024;05:15;3,000;
22.03.2024;05:00;3,000;
22.03.2024;04:45;3,000;
22.03.2024;04:30;3,000;
22.03.2024;04:15;3,000;
22.03.2024;04:00;3,000;
22.03.2024;03:45;3,000;
22.03.2024;03:30;3,000;
22.03.2024;03:15;3,000;
22.03.2024;03:00;3,000;
22.03.2024;02:45;3,000;
22.03.2024;02:30;3,000;
22.03.2024;02:15;3,000;
22.03.2024;02:00;3,000;
22.03.2024;01:45;3,000;
22.03.2024;01:30;3,000;
22.03.2024;01:15;3,000;
22.03.2024;01:00;3,000;
22.03.2024;00:45;3,000;
22.03.2024;00:30;3,000;
22.03.2024;00:15;3,000;
22.03.2024;00:00;3,000;
21.03.2024;23:45;3,000;
21.03.2024;23:30;3,000;
21.03.2024;23:15;3,000;
21.03.2024;23:00;3,000;
21.03.2024;22:45;3,000;
21.03.2024;22:30;3,000;
21.03.2024;22:15;3,000;
21.03.2024;22:00;3,000;
21.03.2024;21:45;3,000;
21.03.2024;21:30;2,990;
21.03.2024;21:15;3,000;
21.03.2024;21:00;3,000;
21.03.2024;20:45;3,000;
21.03.2024;20:30;3,000;
21.03.2024;20:15;3,000;
21.03.2024;20:00;3,000;
21.03.2024;19:45;3,000;
21.03.2024;19:30;3,000;
21.03.2024;19:15;3,000;
21.03.2024;19:00;3,000;
21.03.2024;18:45;3,000;
21.03.2024;18:30;3,000;
21.03.2024;18:15;3,000;
21.03.2024;18:00;3,000;
21.03.2024;17:45;3,000;
21.03.2024;17:30;3,000;
21.03.2024;17:15;3,000;
21.03.2024;17:00;3,000;
21.03.2024;16:45;3,000;
21.03.2024;16:30;3,000;
21.03.2024;16:15;3,000;
21.03.2024;16:00;3,000;
21.03.2024;15:45;3,000;
21.03.2024;15:30;3,000;
21.03.2024;15:15;3,000;
21.03.2024;15:00;3,000;
21.03.2024;14:45;3,000;
21.03.2024;14:30;3,000;
21.03.2024;14:15;3,000;
21.03.2024;14:00;3,000;
21.03.2024;13:45;3,000;
21.03.2024;13:30;3,000;
21.03.2024;13:15;3,000;
21.03.2024;13:00;3,000;
21.03.2024;12:45;3,000;
21.03.2024;12:30;3,000;
21.03.2024;12:15;3,000;
21.03.2024;12:00;3,000;
21.03.2024;11:45;3,000;
21.03.2024;11:30;3,000;
21.03.2024;11:15;3,000;
21.03.2024;11:00;3,000;
21.03.2024;10:45;3,000;
21.03.2024;10:30;3,000;
21.03.2024;10:15;3,000;
21.03.2024;10:00;3,000;
21.03.2024;09:45;2,990;
21.03.2024;09:30;3,000;
21.03.2024;09:15;3,000;
21.03.2024;09:00;3,000;
21.03.2024;08:45;3,000;
21.03.2024;08:30;3,000;
21.03.2024;08:15;3,000;
21.03.2024;08:00;3,000;
21.03.2024;07:45;3,000;
21.03.2024;07:30;3,000;
21.03.2024;07:15;3,000;
21.03.2024;07:00;3,000;
21.03.2024;06:45;3,000;
21.03.2024;06:30;3,000;
21.03.2024;06:15;3,000;
21.03.2024;06:00;3,000;
21.03.2024;05:45;3,000;
21.03.2024;05:30;3,000;
21.03.2024;05:15;3,000;
21.03.2024;05:00;3,000;
21.03.2024;04:45;3,000;
21.03.2024;04:30;3,000;
21.03.2024;04:15;3,000;
21.03.2024;04:00;3,000;
21.03.2024;03:45;3,000;
21.03.2024;03:30;3,000;
21.03.2024;03:15;3,000;
21.03.2024;03:00;3,000;
21.03.2024;02:45;3,000;
21.03.2024;02:30;3,000;
21.03.2024;02:15;3,000;
21.03.2024;02:00;3,000;
21.03.2024;01:45;3,000;
21.03.2024;01:30;3,000;
21.03.2024;01:15;3,000;
21.03.2024;01:00;3,000;
21.03.2024;00:45;3,000;
21.03.2024;00:30;3,000;
21.03.2024;00:15;3,000;
21.03.2024;00:00;3,000;
20.03.2024;23:45;3,000;
20.03.2024;23:30;3,000;
20.03.2024;23:15;3,000;
20.03.2024;23:00;3,000;
20.03.2024;22:45;3,000;
20.03.2024;22:30;3,000;
20.03.2024;22:15;2,990;
20.03.2024;22:00;3,000;
20.03.2024;21:45;3,000;
20.03.2024;21:30;3,000;
20.03.2024;21:15;3,000;
20.03.2024;21:00;3,000;
20.03.2024;20:45;3,000;
20.03.2024;20:30;3,000;
20.03.2024;20:15;3,000;
20.03.2024;20:00;3,000;
20.03.2024;19:45;3,000;
20.03.2024;19:30;3,000;
20.03.2024;19:15;3,000;
20.03.2024;19:00;3,000;
20.03.2024;18:45;3,000;
20.03.2024;18:30;3,000;
20.03.2024;18:15;3,000;
20.03.2024;18:00;3,000;
20.03.2024;17:45;3,000;
20.03.2024;17:30;3,000;
20.03.2024;17:15;3,000;
20.03.2024;17:00;3,000;
20.03.2024;16:45;3,000;
20.03.2024;16:30;3,000;
20.03.2024;16:15;3,000;
20.03.2024;16:00;3,000;
20.03.2024;15:45;3,000;
20.03.2024;15:30;3,000;
20.03.2024;15:15;3,000;
20.03.2024;15:00;3,000;
20.03.2024;14:45;3,000;
20.03.2024;14:30;3,000;
20.03.2024;14:15;3,000;
20.03.2024;14:00;3,000;
20.03.2024;13:45;3,000;
20.03.2024;13:30;3,000;
20.03.2024;13:15;3,000;
20.03.2024;13:00;3,000;
20.03.2024;12:45;3,000;
20.03.2024;12:30;3,000;
20.03.2024;12:15;3,000;
20.03.2024;12:00;3,000;
20.03.2024;11:45;3,000;
20.03.2024;11:30;3,000;
20.03.2024;11:15;3,000;
20.03.2024;11:00;3,000;
20.03.2024;10:45;3,000;
20.03.2024;10:30;3,000;
20.03.2024;10:15;3,000;
20.03.2024;10:00;3,000;
20.03.2024;09:45;3,000;
20.03.2024;09:30;3,000;
20.03.2024;09:15;3,000;
20.03.2024;09:00;3,000;
20.03.2024;08:45;3,000;
20.03.2024;08:30;3,000;
20.03.2024;08:15;3,000;
20.03.2024;08:00;3,000;
20.03.2024;07:45;3,000;
20.03.2024;07:30;3,000;
20.03.2024;07:15;3,000;
20.03.2024;07:00;3,000;
20.03.2024;06:45;3,000;
20.03.2024;06:30;3,000;
20.03.2024;06:15;3,000;
20.03.2024;06:00;3,000;
20.03.2024;05:45;3,000;
20.03.2024;05:30;3,000;
20.03.2024;05:15;3,000;
20.03.2024;05:00;3,000;
20.03.2024;04:45;3,000;
20.03.2024;04:30;3,000;
20.03.2024;04:15;3,000;
20.03.2024;04:00;3,000;
20.03.2024;03:45;3,000;
20.03.2024;03:30;3,000;
20.03.2024;03:15;3,000;
20.03.2024;03:00;3,000;
20.03.2024;02:45;3,000;
20.03.2024;02:30;3,000;
20.03.2024;02:15;3,000;
20.03.2024;02:00;3,000;
20.03.2024;01:45;3,000;
20.03.2024;01:30;3,000;
20.03.2024;01:15;3,000;
20.03.2024;01:00;3,000;
20.03.2024;00:45;3,000;
20.03.2024;00:30;3,000;
20.03.2024;00:15;3,000;
20.03.2024;00:00;3,000;
19.03.2024;23:45;3,000;
19.03.2024;23:30;3,000;
19.03.2024;23:15;3,000;
19.03.2024;23:00;3,000;
19.03.2024;22:45;3,000;
19.03.2024;22:30;3,000;
19.03.2024;22:15;3,000;
19.03.2024;22:00;3,000;
19.03.2024;21:45;3,000;
19.03.2024;21:30;3,000;
19.03.2024;21:15;3,000;
19.03.2024;21:00;3,000;
19.03.2024;20:45;3,000;
19.03.2024;20:30;3,000;
19.03.2024;20:15;3,000;
19.03.2024;20:00;3,000;
19.03.2024;19:45;3,000;
19.03.2024;19:30;3,000;
19.03.2024;19:15;3,000;
19.03.2024;19:00;3,000;
19.03.2024;18:45;3,000;
19.03.2024;18:30;3,000;
19.03.2024;18:15;3,000;
19.03.2024;18:00;3,000;
19.03.2024;17:45;3,000;
19.03.2024;17:30;3,000;
19.03.2024;17:15;3,000;
19.03.2024;17:00;3,000;
19.03.2024;16:45;3,000;
19.03.2024;16:30;3,000;
19.03.2024;16:15;3,000;
19.03.2024;16:00;3,000;
19.03.2024;15:45;3,000;
19.03.2024;15:30;3,000;
19.03.2024;15:15;3,000;
19.03.2024;15:00;3,000;
19.03.2024;14:45;3,000;
19.03.2024;14:30;3,000;
19.03.2024;14:15;3,000;
19.03.2024;14:00;3,000;
19.03.2024;13:45;3,000;
19.03.2024;13:30;3,000;
19.03.2024;13:15;3,000;
19.03.2024;13:00;3,000;
19.03.2024;12:45;3,000;
19.03.2024;12:30;3,000;
19.03.2024;12:15;3,000;
19.03.2024;12:00;3,000;
19.03.2024;11:45;3,000;
19.03.2024;11:30;3,000;
19.03.2024;11:15;3,000;
19.03.2024;11:00;3,000;
19.03.2024;10:45;3,000;
19.03.2024;10:30;3,000;
19.03.2024;10:15;3,000;
19.03.2024;10:00;3,020;
19.03.2024;09:45;3,000;
19.03.2024;09:30;3,000;
19.03.2024;09:15;3,000;